EW4092 Weather Reports


time (UTC)temp
C
wind
direction
speed
KPH
gust
KPH
rain 1hr
cm
rain 24hr
cm
rain mn
cm
humidity
%
barometer
mb
20260902173051 19 287 3.2 8.0 0.00 0.00 0.00 51 1006.7
20260902171558 18 248 0.0 8.0 0.00 0.00 0.00 58 1006.8
20260902170047 18 256 3.2 8.0 0.00 0.00 0.00 59 1006.9
20260902164555 18 215 1.6 8.0 0.00 0.00 0.00 59 1006.9
20260902163047 17 233 3.2 6.4 0.00 0.00 0.00 60 1006.9
20260902161548 17 227 4.8 8.0 0.00 0.00 0.00 62 1007.1
20260902160042 16 51 0.0 3.2 0.00 0.00 0.00 65 1007.3
20260902154557 16 53 0.0 4.8 0.00 0.00 0.00 68 1007.5
20260902153042 15 82 1.6 6.4 0.00 0.00 0.00 73 1007.6
20260902151540 15 79 4.8 9.7 0.00 0.00 0.00 76 1007.6
20260902150038 15 89 3.2 8.0 0.00 0.00 0.00 71 1007.6
20260902144540 15 207 0.0 3.2 0.00 0.00 0.00 74 1007.5
20260902143037 14 191 0.0 3.2 0.00 0.00 0.00 76 1007.8
20260902141536 13 88 0.0 0.0 0.00 0.00 0.00 79 1007.7
20260902140039 13 88 0.0 1.6 0.00 0.00 0.00 79 1007.8
20260902134535 12 88 0.0 0.0 0.00 0.00 0.00 80 1007.9
20260902133034 12 88 0.0 0.0 0.00 0.00 0.00 81 1007.7
20260902131534 12 87 0.0 3.2 0.00 0.00 0.00 81 1007.7
20260902130033 12 50 0.0 0.0 0.00 0.00 0.00 81 1007.7
20260902124534 12 50 0.0 1.6 0.00 0.00 0.00 80 1007.8
20260902123028 13 63 0.0 1.6 0.00 0.00 0.00 79 1007.7
20260902121527 13 63 0.0 1.6 0.00 0.00 0.00 78 1007.8
20260902120027 13 64 0.0 1.6 0.00 0.00 0.00 77 1008.0
20260902114523 13 352 1.6 3.2 0.00 0.00 0.00 76 1007.8
20260902113019 14 68 0.0 3.2 0.00 0.00 0.00 74 1007.4
20260902111518 15 104 0.0 1.6 0.00 0.00 0.00 73 1007.3
20260902110017 15 104 0.0 1.6 0.00 0.00 0.00 72 1007.3
20260902104517 15 104 1.6 4.8 0.00 0.00 0.00 69 1007.5
20260902103028 15 24 0.0 1.6 0.00 0.00 0.00 67 1007.3
20260902101525 15 340 0.0 3.2 0.00 0.00 0.00 67 1007.1
20260902100015 15 94 0.0 4.8 0.00 0.00 0.00 68 1006.8
20260902094514 15 108 1.6 12.9 0.00 0.00 0.00 68 1006.9
20260902093013 15 169 1.6 9.7 0.00 0.00 0.00 69 1006.5
20260902091510 14 65 0.0 1.6 0.00 0.00 0.00 67 1007.7
20260902090007 16 41 3.2 8.0 0.00 0.00 0.00 61 1007.3
20260902084505 16 163 0.0 4.8 0.00 0.00 0.00 61 1006.8
20260902083003 16 113 0.0 9.7 0.00 0.00 0.00 59 1007.0
20260902081503 16 114 1.6 6.4 0.00 0.00 0.00 57 1007.3
20260902080101 17 150 0.0 6.4 0.00 0.00 0.00 56 1007.1
20260902074600 17 104 0.0 4.8 0.00 0.00 0.00 58 1007.1
20260902073058 17 131 1.6 8.0 0.00 0.00 0.00 59 1007.4
20260902071602 17 158 0.0 6.4 0.00 0.00 0.00 59 1007.6
20260902070050 17 139 0.0 8.0 0.00 0.00 0.00 58 1007.9
20260902064558 18 163 0.0 4.8 0.00 0.00 0.00 58 1007.9
20260902063052 18 118 4.8 9.7 0.00 0.00 0.00 57 1007.8
20260902060054 18 134 4.8 16.1 0.00 0.00 0.00 55 1007.5
20260902054546 18 124 6.4 12.9 0.00 0.00 0.00 56 1007.4
20260902053046 18 114 1.6 12.9 0.00 0.00 0.00 57 1007.3
20260902051546 18 110 3.2 12.9 0.00 0.00 0.00 57 1007.3
20260902044604 19 134 3.2 14.5 0.00 0.00 0.00 56 1006.7
20260902043043 19 152 4.8 16.1 0.00 0.00 0.00 56 1006.5
20260902041542 19 114 4.8 14.5 0.00 0.00 0.00 56 1006.3
20260902040050 20 147 0.0 11.3 0.00 0.00 0.00 56 1006.1
20260902034548 20 96 3.2 12.9 0.00 0.00 0.00 55 1005.9
20260902033041 20 119 3.2 16.1 0.00 0.00 0.00 54 1005.6
20260902031540 21 179 1.6 9.7 0.00 0.00 0.00 53 1005.5
20260902030039 21 232 1.6 9.7 0.00 0.00 0.00 51 1005.2
20260902024542 22 181 4.8 12.9 0.00 0.00 0.00 49 1004.9
20260902023042 23 100 4.8 20.9 0.00 0.00 0.00 46 1004.6
20260902021548 23 86 6.4 19.3 0.00 0.00 0.00 46 1004.5
20260902020038 24 126 4.8 11.3 0.00 0.00 0.00 45 1004.4
20260902014541 25 156 1.6 12.9 0.00 0.00 0.00 42 1004.2
20260902013035 26 141 11.3 20.9 0.00 0.00 0.00 36 1004.0
20260902011536 26 87 1.6 20.9 0.00 0.00 0.00 36 1003.8
20260902010033 26 307 1.6 14.5 0.00 0.00 0.00 35 1004.0
20260902004532 27 46 6.4 16.1 0.00 0.00 0.00 32 1004.1
20260902003038 27 46 1.6 12.9 0.00 0.00 0.00 32 1004.2
20260902001531 28 34 1.6 11.3 0.00 0.00 0.00 31 1004.1
20260902000030 28 44 3.2 12.9 0.00 0.00 0.00 29 1004.1
20260901234529 28 21 3.2 14.5 0.00 0.00 0.00 31 1004.0
20260901233029 28 343 4.8 12.9 0.00 0.00 0.00 30 1004.1
20260901231528 28 29 4.8 9.7 0.00 0.00 0.00 29 1004.0
20260901230027 29 242 3.2 9.7 0.00 0.00 0.00 31 1004.1
20260901224525 28 330 3.2 11.3 0.00 0.00 0.00 29 1004.1
20260901223034 28 44 3.2 12.9 0.00 0.00 0.00 30 1004.2
20260901221519 28 290 1.6 6.4 0.00 0.00 0.00 30 1004.4
20260901220030 28 321 4.8 9.7 0.00 0.00 0.00 29 1004.5
20260901214513 28 349 4.8 8.0 0.00 0.00 0.00 30 1004.7
20260901213013 27 212 3.2 9.7 0.00 0.00 0.00 32 1004.8
20260901211509 27 252 3.2 12.9 0.00 0.00 0.00 34 1005.1
20260901210011 27 319 3.2 9.7 0.00 0.00 0.00 32 1005.2
20260901204504 27 210 4.8 8.0 0.00 0.00 0.00 31 1005.5
20260901203004 26 274 1.6 8.0 0.00 0.00 0.00 32 1005.6
20260901201600 26 350 0.0 8.0 0.00 0.00 0.00 34 1005.8
20260901200055 26 340 1.6 6.4 0.00 0.00 0.00 33 1005.9
20260901194552 26 325 0.0 4.8 0.00 0.00 0.00 34 1006.2
20260901193049 25 96 0.0 3.2 0.00 0.00 0.00 38 1006.4
20260901191547 25 47 0.0 4.8 0.00 0.00 0.00 40 1006.5
20260901190144 23 86 1.6 4.8 0.00 0.00 0.00 42 1006.7
20260901184548 23 101 3.2 6.4 0.00 0.00 0.00 45 1006.8
20260901183040 23 113 3.2 8.0 0.00 0.00 0.00 40 1006.8
20260901181538 23 98 3.2 6.4 0.00 0.00 0.00 45 1006.9
20260901180037 22 108 0.0 8.0 0.00 0.00 0.00 42 1007.1